Location: Unspecified
(0.0000°N, 0.0000°E)
Time: 11:36:38
(UTC+00:00)

Tiros 1 despin weight - Pass Details

Date: 19 November 2019
Orbit: 594 x 642 km, 48.2° (Epoch: 13 December)

Event Time Altitude Azimuth Distance (km) Brightness Sun altitude
Rises 09:00:30 0° 195° (SSW) 2,864 ? 45.2°
Reaches altitude 10° 09:03:18 10° 178° (S) 1,949 ? 45.8°
Maximum altitude 09:06:37 20° 130° (SE) 1,383 ? 46.5°
Drops below altitude 10° 09:09:55 10° 82° (E) 1,926 ? 47.3°
Sets 09:12:39 0° 65° (ENE) 2,820 ? 47.9°
